CEB323 RPLL-RPLK

Flight info

Callsign CEB323
Flight time 0h 34m
Altitude 25000
Route HARBO1 HARBO DCT TIMON W15 RAGAY RAGAY1B
Aircraft A320/M-SDE3FGHIRWY/LB1

Departure

Time 2026-04-25 04:59
Airport Ninoy Aquino International Airport (RPLL)

Arrival

Time 2026-04-25 05:33
Airport Bicol International Airport (RPLK)
Time Latitude Longitude Altitude Speed Heading
2026-04-25 04:58 14.65461 121.03810 9751 ft 297 kts 125°
2026-04-25 04:59 14.64283 121.05571 10307 ft 308 kts 125°
2026-04-25 04:59 14.63009 121.07466 10513 ft 332 kts 125°
2026-04-25 04:59 14.61664 121.09474 10896 ft 346 kts 125°
2026-04-25 04:59 14.60289 121.11535 11534 ft 351 kts 125°
2026-04-25 05:00 14.58908 121.13611 12190 ft 355 kts 125°
2026-04-25 05:00 14.57503 121.15726 12858 ft 359 kts 126°
2026-04-25 05:00 14.56084 121.17864 13504 ft 363 kts 126°
2026-04-25 05:00 14.54654 121.20017 14092 ft 366 kts 126°
2026-04-25 05:01 14.53202 121.22203 14624 ft 370 kts 126°
2026-04-25 05:01 14.51737 121.24406 15129 ft 374 kts 126°
2026-04-25 05:01 14.50255 121.26635 15639 ft 379 kts 126°
2026-04-25 05:01 14.48758 121.28887 16135 ft 383 kts 126°
2026-04-25 05:02 14.47241 121.31166 16650 ft 387 kts 126°
2026-04-25 05:02 14.45710 121.33463 17140 ft 391 kts 126°
2026-04-25 05:02 14.44160 121.35787 17640 ft 395 kts 126°
2026-04-25 05:02 14.42596 121.38132 18125 ft 399 kts 126°
2026-04-25 05:03 14.41035 121.40468 18547 ft 402 kts 126°
2026-04-25 05:03 14.39442 121.42853 19013 ft 404 kts 126°
2026-04-25 05:03 14.37842 121.45251 19465 ft 406 kts 126°
2026-04-25 05:03 14.36244 121.47650 19917 ft 408 kts 126°
2026-04-25 05:04 14.34630 121.50072 20386 ft 410 kts 126°
2026-04-25 05:04 14.33014 121.52499 20849 ft 411 kts 126°
2026-04-25 05:04 14.31391 121.54937 21306 ft 413 kts 127°
2026-04-25 05:04 14.29758 121.57380 21740 ft 415 kts 127°
2026-04-25 05:05 14.28114 121.59835 22187 ft 417 kts 127°
2026-04-25 05:05 14.26460 121.62306 22620 ft 419 kts 127°
2026-04-25 05:05 14.24807 121.64779 23038 ft 421 kts 127°
2026-04-25 05:05 14.23145 121.67270 23455 ft 423 kts 127°
2026-04-25 05:06 14.21474 121.69774 23806 ft 425 kts 127°
2026-04-25 05:06 14.19792 121.72288 24135 ft 427 kts 127°
2026-04-25 05:06 14.18098 121.74817 24459 ft 430 kts 127°
2026-04-25 05:06 14.16416 121.77326 24764 ft 432 kts 127°
2026-04-25 05:07 14.14701 121.79881 24914 ft 433 kts 127°
2026-04-25 05:07 14.13007 121.82404 24947 ft 424 kts 127°
2026-04-25 05:07 14.11338 121.84892 24950 ft 420 kts 126°
2026-04-25 05:07 14.09680 121.87362 24946 ft 418 kts 126°
2026-04-25 05:08 14.08028 121.89824 24945 ft 418 kts 126°
2026-04-25 05:08 14.06376 121.92287 24945 ft 418 kts 126°
2026-04-25 05:08 14.04823 121.94820 24942 ft 419 kts 119°
2026-04-25 05:08 14.03500 121.97493 24941 ft 419 kts 118°
2026-04-25 05:09 14.02175 122.00165 24944 ft 419 kts 118°
2026-04-25 05:09 14.00844 122.02839 24940 ft 419 kts 118°
2026-04-25 05:09 13.99511 122.05509 24938 ft 419 kts 119°
2026-04-25 05:09 13.98177 122.08176 24936 ft 419 kts 119°
2026-04-25 05:10 13.96842 122.10840 24934 ft 419 kts 119°
2026-04-25 05:10 13.95504 122.13506 24935 ft 422 kts 119°
2026-04-25 05:10 13.94149 122.16205 24776 ft 425 kts 119°
2026-04-25 05:10 13.92805 122.18880 24246 ft 423 kts 119°
2026-04-25 05:11 13.91457 122.21569 23744 ft 420 kts 119°
2026-04-25 05:11 13.90126 122.24236 23210 ft 416 kts 118°
2026-04-25 05:11 13.88823 122.26848 22690 ft 413 kts 118°
2026-04-25 05:12 13.86199 122.32084 21646 ft 407 kts 118°
2026-04-25 05:12 13.84893 122.34677 21156 ft 405 kts 118°
2026-04-25 05:12 13.83617 122.37214 20673 ft 402 kts 118°
2026-04-25 05:12 13.82754 122.38937 20354 ft 400 kts 118°
2026-04-25 05:13 13.81072 122.42293 19728 ft 398 kts 118°
2026-04-25 05:13 13.79807 122.44814 19282 ft 395 kts 118°
2026-04-25 05:13 13.78548 122.47324 18844 ft 393 kts 117°
2026-04-25 05:13 13.77294 122.49820 18410 ft 391 kts 117°
2026-04-25 05:14 13.76047 122.52302 17953 ft 389 kts 117°
2026-04-25 05:14 13.74809 122.54762 17494 ft 387 kts 117°
2026-04-25 05:14 13.73570 122.57224 17052 ft 383 kts 118°
2026-04-25 05:15 13.70616 122.61675 16213 ft 376 kts 128°
2026-04-25 05:15 13.69055 122.63823 15815 ft 373 kts 128°
2026-04-25 05:15 13.67510 122.65948 15427 ft 370 kts 128°
2026-04-25 05:15 13.65974 122.68065 15036 ft 366 kts 128°
2026-04-25 05:16 13.64459 122.70153 14642 ft 363 kts 128°
2026-04-25 05:16 13.62956 122.72219 14259 ft 360 kts 128°
2026-04-25 05:16 13.61963 122.73584 14039 ft 357 kts 128°
2026-04-25 05:16 13.60014 122.76267 13596 ft 351 kts 128°
2026-04-25 05:17 13.58572 122.78254 13323 ft 343 kts 128°
2026-04-25 05:17 13.57157 122.80203 13073 ft 336 kts 128°
2026-04-25 05:17 13.55771 122.82110 12825 ft 330 kts 128°
2026-04-25 05:17 13.54407 122.83986 12633 ft 326 kts 128°
2026-04-25 05:18 13.53055 122.85849 12400 ft 324 kts 128°
2026-04-25 05:18 13.51713 122.87700 12154 ft 322 kts 127°
2026-04-25 05:18 13.50830 122.88916 11995 ft 321 kts 127°
2026-04-25 05:18 13.49049 122.91368 11679 ft 319 kts 127°
2026-04-25 05:19 13.48175 122.92572 11524 ft 317 kts 127°
2026-04-25 05:19 13.46855 122.94388 11290 ft 316 kts 127°
2026-04-25 05:19 13.45541 122.96190 11054 ft 315 kts 127°
2026-04-25 05:19 13.44230 122.97985 10819 ft 313 kts 127°
2026-04-25 05:20 13.42929 122.99766 10585 ft 312 kts 127°
2026-04-25 05:20 13.41631 123.01546 10354 ft 310 kts 127°
2026-04-25 05:20 13.40346 123.03311 10135 ft 306 kts 126°
2026-04-25 05:20 13.39094 123.05034 9982 ft 296 kts 126°
2026-04-25 05:21 13.37873 123.06714 9818 ft 291 kts 126°
2026-04-25 05:21 13.36663 123.08373 9621 ft 290 kts 126°
2026-04-25 05:21 13.35470 123.10007 9417 ft 289 kts 126°
2026-04-25 05:21 13.34267 123.11653 9207 ft 288 kts 126°
2026-04-25 05:22 13.33069 123.13291 9004 ft 287 kts 126°
2026-04-25 05:22 13.31872 123.14925 8791 ft 286 kts 126°
2026-04-25 05:22 13.30678 123.16554 8586 ft 285 kts 126°
2026-04-25 05:22 13.29491 123.18177 8377 ft 284 kts 126°
2026-04-25 05:23 13.28310 123.19792 8170 ft 282 kts 126°
2026-04-25 05:23 13.27114 123.21389 7967 ft 282 kts 131°
2026-04-25 05:23 13.25755 123.22833 7758 ft 281 kts 133°
2026-04-25 05:23 13.24390 123.24267 7547 ft 280 kts 133°
2026-04-25 05:24 13.23032 123.25698 7341 ft 279 kts 133°
2026-04-25 05:24 13.21762 123.27036 7146 ft 278 kts 133°
2026-04-25 05:24 13.20433 123.28437 6941 ft 277 kts 133°
2026-04-25 05:24 13.19094 123.29848 6726 ft 276 kts 133°
2026-04-25 05:25 13.17756 123.31256 6518 ft 275 kts 133°
2026-04-25 05:25 13.16420 123.32660 6316 ft 274 kts 133°
2026-04-25 05:25 13.15092 123.34056 6105 ft 273 kts 133°
2026-04-25 05:25 13.13767 123.35450 5897 ft 272 kts 133°
2026-04-25 05:26 13.12448 123.36838 5698 ft 271 kts 133°
2026-04-25 05:26 13.11129 123.38225 5492 ft 271 kts 133°
2026-04-25 05:26 13.09819 123.39604 5291 ft 270 kts 132°
2026-04-25 05:26 13.08504 123.40986 5090 ft 270 kts 133°
2026-04-25 05:27 13.07194 123.42360 4893 ft 270 kts 133°
2026-04-25 05:27 13.05886 123.43733 4683 ft 267 kts 133°
2026-04-25 05:27 13.04603 123.45083 4482 ft 263 kts 131°
2026-04-25 05:27 13.03341 123.46411 4275 ft 257 kts 133°
2026-04-25 05:28 13.02118 123.47698 4080 ft 247 kts 132°
2026-04-25 05:28 13.00938 123.48938 3895 ft 240 kts 132°
2026-04-25 05:28 12.99774 123.50158 3695 ft 239 kts 131°
2026-04-25 05:28 12.98718 123.51430 3518 ft 231 kts 116°
2026-04-25 05:29 12.98451 123.53011 3332 ft 227 kts 79°
2026-04-25 05:29 12.99143 123.54410 3154 ft 221 kts 47°
2026-04-25 05:29 13.00230 123.55493 2984 ft 215 kts 47°
2026-04-25 05:29 13.01228 123.56577 2813 ft 209 kts 49°
2026-04-25 05:30 13.02193 123.57662 2660 ft 203 kts 50°
2026-04-25 05:30 13.03136 123.58725 2500 ft 200 kts 49°
2026-04-25 05:30 13.04065 123.59769 2278 ft 193 kts 50°
2026-04-25 05:30 13.04941 123.60746 2020 ft 181 kts 50°
2026-04-25 05:31 13.05779 123.61676 1790 ft 172 kts 49°
2026-04-25 05:31 13.06571 123.62555 1536 ft 163 kts 49°
2026-04-25 05:31 13.07298 123.63359 1338 ft 149 kts 50°
2026-04-25 05:31 13.07992 123.64124 1141 ft 143 kts 51°
2026-04-25 05:32 13.08665 123.64846 927 ft 141 kts 50°
2026-04-25 05:32 13.09304 123.65594 709 ft 137 kts 49°
2026-04-25 05:32 13.09953 123.66323 529 ft 140 kts 49°
2026-04-25 05:32 13.10614 123.67048 362 ft 137 kts 49°
2026-04-25 05:33 13.11235 123.67737 312 ft 121 kts 49°
2026-04-25 05:33 13.11697 123.68255 307 ft 74 kts 47°
2026-04-25 05:33 13.11905 123.68486 309 ft 22 kts 39°
2026-04-25 05:33 13.11974 123.68552 310 ft 8 kts 132°
2026-04-25 05:34 13.11933 123.68515 309 ft 15 kts 232°
2026-04-25 05:34 13.11828 123.68385 308 ft 31 kts 230°
2026-04-25 05:34 13.11654 123.68189 308 ft 39 kts 226°
2026-04-25 05:34 13.11518 123.68046 307 ft 16 kts 217°
2026-04-25 05:35 13.11426 123.68068 305 ft 14 kts 137°
2026-04-25 05:35 13.11344 123.68096 302 ft 13 kts 207°
2026-04-25 05:35 13.11285 123.68034 303 ft 11 kts 227°
2026-04-25 05:35 13.11234 123.68015 303 ft 8 kts 141°
2026-04-25 05:36 13.11199 123.68046 301 ft 6 kts 137°
2026-04-25 05:36 13.11195 123.68051 301 ft 0 kts 137°